#timestamp,LO_Frequency,Hit,StdDev 
1620824415.0,286047001.5,N
1620824415.9,286047001.5,N
1620824435.8,286047001.9,N
1620824455.6,286047002.1,N
1620824475.5,286047001.4,N
1620824495.3,286047003.9,Y
1620824515.1,286046999.7,P
1620824535.9,286047000.1,N
1620824555.7,286047000.9,N
1620824575.5,286046999.8,N
1620824595.4,286046999.7,N
1620824615.2,286047002.4,N
1620824635.1,286046999.9,N
1620824636.0,286046999.9,N
1620824655.8,286047002.4,N
1620824675.6,286047002.4,N
1620824695.5,286047000.3,N
1620824715.3,286047002.7,N
1620824735.2,286047002.3,N
1620824755.9,286046999.7,N
1620824775.7,286047002.8,N
1620824795.6,286047000.9,N
1620824815.4,286047000.3,N
1620824835.2,286047001.0,N
1620824855.1,286046999.9,N
1620824856.0,286046999.9,N
1620824875.8,286047000.2,N
1620824895.7,286047002.4,N
1620824915.5,286047002.7,N
1620824935.3,286047000.5,N
1620824955.2,286046999.8,N
1620824975.0,286047000.3,N
1620824975.9,286047000.3,N
1620824995.7,286046999.9,N
1620825015.6,286047000.8,N
1620825035.4,286047001.0,N
1620825055.3,286047000.0,N
1620825075.1,286046999.8,N
1620825095.8,286047002.3,N
1620825115.7,286047001.5,N
1620825135.5,286047001.9,N
1620825155.3,286047002.6,N
1620825175.2,286046999.7,N
1620825195.0,286046999.8,N
1620825195.9,286046999.8,N
1620825215.8,286047001.6,N
1620825235.6,286047001.8,N
1620825255.4,286047001.8,N
1620825275.3,286047001.4,N
1620825295.1,286047001.4,N
1620825315.9,286047004.1,Y
1620825335.7,286047004.4,P
1620825355.5,286047001.5,N
1620825375.4,286047001.6,N
1620825395.2,286047002.0,N
1620825415.0,286047002.2,N
1620825415.9,286047002.2,N
1620825435.8,286047002.1,N
1620825455.6,286047001.5,N
1620825475.5,286047002.0,N
1620825495.3,286047002.3,N
1620825515.1,286047002.3,N
1620825535.9,286047001.6,N
1620825555.7,286047002.3,N
1620825575.5,286047002.3,Y
1620825595.4,286047000.5,P
1620825615.2,286046999.8,N
1620825635.1,286047000.3,N
1620825636.0,286047000.3,N
1620825655.8,286047000.0,N
1620825675.6,286046999.8,N
1620825695.5,286047000.6,N
1620825715.3,286047000.5,N
1620825735.1,286047000.3,N
1620825755.9,286047000.9,N
1620825775.7,286046999.9,N
1620825795.6,286047000.9,N
1620825815.4,286047001.0,N
1620825835.2,286046998.1,Y
1620825855.1,286046998.1,P
1620825856.0,286046998.1,N
1620825875.8,286047001.2,N
1620825895.7,286047000.5,N
1620825915.5,286047000.6,N
1620825935.3,286047000.3,N
1620825955.2,286047000.5,N
1620825975.0,286047000.3,N
1620825975.9,286047000.3,N
1620825995.7,286046999.9,N
1620826015.6,286047000.4,N
1620826035.4,286046999.9,N
1620826055.3,286047000.1,N
1620826075.1,286046999.8,N
1620826095.8,286046999.9,N
1620826115.7,286047002.7,Y
1620826135.5,286047001.8,P
1620826155.4,286047001.8,N
1620826175.2,286047001.5,N
1620826195.0,286047002.2,N
1620826195.9,286047002.2,N
1620826215.8,286047002.1,N
1620826235.6,286047001.6,N
1620826255.4,286047002.0,N
1620826275.3,286047001.6,N
1620826295.1,286047002.1,Y
1620826315.9,286047000.0,P
1620826335.7,286047000.2,N
1620826355.5,286046999.8,N
1620826375.4,286046999.7,N
1620826395.2,286046999.8,N
1620826415.1,286047000.2,N
1620826416.0,286047000.2,N
1620826435.8,286047000.4,N
1620826455.6,286047000.9,N
1620826475.5,286047000.8,N
1620826495.3,286047001.1,N
1620826515.1,286047000.6,N
1620826535.9,286046998.1,Y
1620826555.7,286046998.2,P
1620826575.6,286046998.4,N
1620826595.4,286046998.5,N
1620826615.2,286046998.7,N
1620826635.1,286046998.5,N
1620826636.0,286046998.5,N
1620826655.8,286046998.6,N
1620826675.7,286047000.8,N
1620826695.5,286047000.9,N
1620826715.3,286047001.0,N
1620826735.2,286047001.0,N
1620826755.0,286047001.1,N
1620826755.9,286047001.1,N
1620826775.7,286047000.6,N
1620826795.6,286047002.8,N
1620826815.4,286047002.4,N
1620826835.3,286047002.7,N
1620826855.1,286047002.2,N
1620826856.0,286047002.2,N
1620826875.8,286047001.9,N
1620826895.7,286047001.6,N
1620826915.5,286047001.3,N
1620826935.3,286047004.2,N
1620826955.2,286047004.1,N
1620826975.0,286047003.5,N
1620826975.9,286047003.5,N
1620826995.8,286047003.9,N
1620827015.6,286047004.3,N
1620827035.4,286047003.6,N
1620827055.3,286047003.8,N
1620827075.1,286047003.3,N
1620827095.9,286047003.7,N
1620827115.7,286047003.2,N
1620827135.5,286047003.1,N
1620827155.4,286047003.5,N
1620827175.2,286047005.8,Y
1620827195.0,286047001.4,P
1620827196.0,286047001.4,P
1620827215.8,286047001.9,P
1620827235.6,286047001.8,Y
1620827255.5,286047000.0,P
1620827275.3,286047000.1,N
1620827295.1,286047000.9,N
1620827315.9,286047002.8,Y
1620827335.7,286047000.9,P
1620827355.6,286047001.1,P
1620827375.4,286047000.9,P
1620827395.2,286047001.2,Y
1620827415.1,286046999.4,P
1620827416.0,286046999.4,N
1620827435.8,286046999.2,N
1620827455.7,286046999.0,N
1620827475.5,286046999.0,N
1620827495.3,286046999.0,N
1620827515.2,286046996.5,Y
1620827535.0,286046998.7,P
1620827535.9,286046998.7,P
1620827555.8,286046999.4,N
1620827575.6,286046999.4,N
1620827595.4,286046998.8,Y
1620827615.3,286047000.9,P
1620827635.1,286047000.9,N
1620827655.9,286047000.4,N
1620827675.7,286047000.3,N
1620827695.5,286047000.0,N
1620827715.4,286047002.8,Y
1620827735.2,286047000.3,P
1620827755.0,286046999.7,P
1620827756.0,286046999.7,N
1620827775.8,286047002.8,Y
1620827795.6,286046999.7,P
1620827815.5,286047002.0,P
1620827835.3,286047002.4,N
1620827855.1,286047001.6,N
1620827875.9,286046999.7,N
1620827895.7,286047001.6,N
1620827915.6,286047001.5,N
1620827935.4,286047001.7,N
1620827955.2,286047001.8,N
1620827975.1,286047002.6,N
1620827976.0,286047002.6,N
1620827995.8,286047001.8,N
